EN

Hourly Weather Rayduzhne (Oborona Rad)

Today, 18 May, Tuesday

Time Temperature Precipitation Wind Pressure Humidity
00:00 +16°C° 0 mm 3 mps 746 mmHg 91%
01:00 +16°C° 0 mm 3 mps 746 mmHg 92%
02:00 +14°C° 0 mm 3 mps 746 mmHg 93%
03:00 +14°C° 0 mm 3 mps 746 mmHg 93%
04:00 +14°C° 0 mm 3 mps 746 mmHg 93%
05:00 +14°C° 0 mm 3 mps 746 mmHg 93%
06:00 +16°C° 0 mm 3 mps 746 mmHg 88%
07:00 +17°C° 0 mm 4 mps 746 mmHg 82%
08:00 +18°C° 0 mm 4 mps 746 mmHg 77%
09:00 +19°C° 0 mm 5 mps 746 mmHg 72%
10:00 +20°C° 0 mm 5 mps 746 mmHg 67%
11:00 +21°C° 0 mm 5 mps 746 mmHg 62%
12:00 +22°C° 0.4 mm 6 mps 746 mmHg 62%
13:00 +22°C° 0.4 mm 6 mps 745 mmHg 61%
14:00 +22°C° 0.4 mm 6 mps 745 mmHg 60%
15:00 +21°C° 0.5 mm 6 mps 745 mmHg 65%
16:00 +21°C° 0.5 mm 6 mps 745 mmHg 69%
17:00 +20°C° 0.5 mm 6 mps 745 mmHg 73%
18:00 +19°C° 0.4 mm 5 mps 745 mmHg 78%
19:00 +17°C° 0.4 mm 4 mps 745 mmHg 84%
20:00 +15°C° 0.4 mm 4 mps 745 mmHg 89%
21:00 +14°C° 0 mm 4 mps 745 mmHg 90%
22:00 +14°C° 0 mm 4 mps 745 mmHg 91%
23:00 +13°C° 0 mm 4 mps 745 mmHg 93%

Tomorrow, 19 May, Wednesday

Time Temperature Precipitation Wind Pressure Humidity
00:00 +13°C° 0 mm 4 mps 745 mmHg 93%
01:00 +13°C° 0 mm 3 mps 745 mmHg 94%
02:00 +12°C° 0 mm 3 mps 745 mmHg 95%
03:00 +12°C° 0 mm 3 mps 745 mmHg 95%
04:00 +13°C° 0 mm 3 mps 745 mmHg 94%
05:00 +14°C° 0 mm 2 mps 745 mmHg 94%
06:00 +14°C° 0.5 mm 2 mps 745 mmHg 90%
07:00 +15°C° 0.5 mm 2 mps 746 mmHg 85%
08:00 +16°C° 0.5 mm 2 mps 746 mmHg 81%
09:00 +17°C° 0.2 mm 2 mps 746 mmHg 76%
10:00 +18°C° 0.2 mm 2 mps 746 mmHg 70%
11:00 +19°C° 0.2 mm 3 mps 746 mmHg 65%
12:00 +19°C° 0.2 mm 3 mps 746 mmHg 63%
13:00 +20°C° 0.2 mm 3 mps 746 mmHg 60%
14:00 +20°C° 0.2 mm 3 mps 746 mmHg 57%
15:00 +20°C° 0.3 mm 3 mps 746 mmHg 61%
16:00 +19°C° 0.3 mm 2 mps 746 mmHg 65%
17:00 +19°C° 0.3 mm 2 mps 746 mmHg 69%
18:00 +18°C° 0.2 mm 2 mps 746 mmHg 73%
19:00 +16°C° 0.2 mm 2 mps 746 mmHg 76%
20:00 +15°C° 0.2 mm 2 mps 747 mmHg 80%
21:00 +14°C° 0 mm 2 mps 746 mmHg 84%
22:00 +13°C° 0 mm 3 mps 746 mmHg 88%
23:00 +12°C° 0 mm 3 mps 746 mmHg 92%

Day after tomorrow, 20 May, Thursday

Time Temperature Precipitation Wind Pressure Humidity
00:00 +12°C° 0.2 mm 3 mps 747 mmHg 93%
01:00 +12°C° 0.2 mm 3 mps 747 mmHg 94%
02:00 +11°C° 0.2 mm 4 mps 747 mmHg 95%
03:00 +12°C° 0 mm 4 mps 747 mmHg 94%
04:00 +12°C° 0 mm 4 mps 747 mmHg 94%
05:00 +12°C° 0 mm 4 mps 748 mmHg 93%
06:00 +12°C° 0 mm 5 mps 748 mmHg 90%
07:00 +13°C° 0 mm 5 mps 748 mmHg 87%
08:00 +13°C° 0 mm 5 mps 748 mmHg 84%
09:00 +15°C° 0 mm 5 mps 749 mmHg 75%
10:00 +17°C° 0 mm 6 mps 749 mmHg 66%
11:00 +20°C° 0 mm 6 mps 749 mmHg 56%
12:00 +20°C° 0.1 mm 6 mps 749 mmHg 55%
13:00 +21°C° 0.1 mm 6 mps 749 mmHg 54%
14:00 +21°C° 0.1 mm 5 mps 749 mmHg 54%
15:00 +20°C° 0.3 mm 6 mps 749 mmHg 61%
16:00 +17°C° 0.3 mm 6 mps 749 mmHg 69%
17:00 +16°C° 0.3 mm 7 mps 749 mmHg 76%
18:00 +15°C° 0 mm 5 mps 749 mmHg 79%
19:00 +15°C° 0 mm 4 mps 750 mmHg 82%
20:00 +14°C° 0 mm 3 mps 750 mmHg 84%
21:00 +14°C° 0 mm 3 mps 750 mmHg 86%
22:00 +13°C° 0 mm 3 mps 750 mmHg 87%
23:00 +13°C° 0 mm 3 mps 750 mmHg 88%

21 May, Friday

Time Temperature Precipitation Wind Pressure Humidity
00:00 +13°C° 0.2 mm 3 mps 750 mmHg 89%
01:00 +13°C° 0.2 mm 3 mps 750 mmHg 91%
02:00 +12°C° 0.2 mm 3 mps 750 mmHg 92%
03:00 +12°C° 0 mm 3 mps 750 mmHg 92%
04:00 +13°C° 0 mm 2 mps 750 mmHg 92%
05:00 +13°C° 0 mm 2 mps 751 mmHg 92%
06:00 +15°C° 0 mm 2 mps 751 mmHg 85%
07:00 +16°C° 0 mm 2 mps 751 mmHg 78%
08:00 +17°C° 0 mm 3 mps 751 mmHg 72%
09:00 +18°C° 0 mm 2 mps 751 mmHg 67%
10:00 +19°C° 0 mm 2 mps 752 mmHg 63%
11:00 +20°C° 0 mm 2 mps 752 mmHg 58%
12:00 +21°C° 0 mm 2 mps 752 mmHg 57%
13:00 +21°C° 0 mm 2 mps 752 mmHg 56%
14:00 +21°C° 0 mm 2 mps 752 mmHg 55%
15:00 +21°C° 0 mm 2 mps 752 mmHg 58%
16:00 +21°C° 0 mm 2 mps 752 mmHg 62%
17:00 +20°C° 0 mm 2 mps 752 mmHg 65%
18:00 +19°C° 0 mm 3 mps 752 mmHg 70%
19:00 +17°C° 0 mm 3 mps 753 mmHg 75%
20:00 +15°C° 0 mm 4 mps 753 mmHg 80%
21:00 +14°C° 0 mm 4 mps 753 mmHg 79%
22:00 +14°C° 0 mm 4 mps 753 mmHg 79%
23:00 +13°C° 0 mm 4 mps 753 mmHg 78%

22 May, Saturday

Time Temperature Precipitation Wind Pressure Humidity
00:00 +13°C° 0 mm 4 mps 753 mmHg 78%
01:00 +13°C° 0 mm 4 mps 753 mmHg 78%
02:00 +13°C° 0 mm 4 mps 753 mmHg 77%
03:00 +13°C° 0 mm 4 mps 753 mmHg 77%
04:00 +13°C° 0 mm 4 mps 753 mmHg 78%
05:00 +13°C° 0 mm 4 mps 754 mmHg 78%
06:00 +14°C° 0 mm 4 mps 754 mmHg 74%
07:00 +15°C° 0 mm 5 mps 753 mmHg 70%
08:00 +16°C° 0 mm 5 mps 753 mmHg 66%
09:00 +17°C° 0 mm 6 mps 753 mmHg 64%
10:00 +19°C° 0 mm 6 mps 754 mmHg 61%
11:00 +20°C° 0 mm 6 mps 754 mmHg 58%
12:00 +21°C° 0 mm 6 mps 753 mmHg 57%
13:00 +21°C° 0 mm 6 mps 753 mmHg 56%
14:00 +22°C° 0 mm 6 mps 753 mmHg 55%
15:00 +22°C° 0 mm 6 mps 753 mmHg 58%
16:00 +21°C° 0 mm 6 mps 753 mmHg 61%
17:00 +21°C° 0 mm 5 mps 753 mmHg 64%
18:00 +19°C° 0 mm 5 mps 753 mmHg 69%
19:00 +17°C° 0 mm 5 mps 753 mmHg 73%
20:00 +15°C° 0 mm 4 mps 753 mmHg 78%
21:00 +15°C° 0 mm 4 mps 753 mmHg 80%
22:00 +14°C° 0 mm 4 mps 753 mmHg 81%
23:00 +13°C° 0 mm 4 mps 753 mmHg 83%

23 May, Sunday

Time Temperature Precipitation Wind Pressure Humidity
00:00 +13°C° 0 mm 5 mps 753 mmHg 82%
01:00 +13°C° 0 mm 5 mps 753 mmHg 81%
02:00 +13°C° 0 mm 5 mps 753 mmHg 80%
03:00 +13°C° 0 mm 5 mps 753 mmHg 80%
04:00 +13°C° 0 mm 5 mps 752 mmHg 80%
05:00 +13°C° 0 mm 5 mps 752 mmHg 80%
06:00 +14°C° 0 mm 6 mps 752 mmHg 75%
07:00 +16°C° 0 mm 6 mps 752 mmHg 70%
08:00 +17°C° 0 mm 7 mps 751 mmHg 65%
09:00 +20°C° 0 mm 6 mps 751 mmHg 64%
10:00 +22°C° 0 mm 6 mps 751 mmHg 62%
11:00 +23°C° 0 mm 6 mps 751 mmHg 61%
12:00 +25°C° 0 mm 5 mps 750 mmHg 60%
13:00 +26°C° 0 mm 5 mps 750 mmHg 59%
14:00 +27°C° 0 mm 4 mps 750 mmHg 59%
15:00 +26°C° 0 mm 4 mps 750 mmHg 62%
16:00 +26°C° 0 mm 4 mps 750 mmHg 65%
17:00 +26°C° 0 mm 4 mps 750 mmHg 67%
18:00 +23°C° 0 mm 4 mps 749 mmHg 74%
19:00 +22°C° 0 mm 4 mps 749 mmHg 81%
20:00 +20°C° 0 mm 4 mps 749 mmHg 88%
21:00 +19°C° 0 mm 4 mps 749 mmHg 90%
22:00 +19°C° 0 mm 4 mps 749 mmHg 93%
23:00 +18°C° 0 mm 4 mps 749 mmHg 95%
Show more

We Need Your Consent

Meteoprog and our Service Providers may store and access personal data such as cookies, device identifiers or other similar technologies on your device and process such data to personalise content and ads, as well as provide social media features and to analyse the traffic.

  • Store and/or access information on your device

    Cookies, device identifiers or other information can be stored or accessed on your device for the purposes indicated above.

  • Personalised ads and content, ad and content measurement, audience insights, and products development

    Ads and content can be personalised based on a profile. More data can be added to better personalise ads and content. Ad and content performance can be measured. Insights about the audience who saw the ads and content can be derived. Such data can be used to develop or improve user’s experience, systems and software.

By clicking ‘I Agree’ you will allow the use of indicated cookies, device identifiers, web beacons or other similar technologies. Your settings can be changed in the browser on your device.

For certain purposes, legitimate interests may be relied on, rather than consent. You can read more about this in our Privacy and Cookie Policy.